owner,sensor,date,latitude,longitude,vertical_datum,sea_water_practical_salinity,qcFlag 
SCCF RECON,ioos:station:SCCF:56:1,2017-07-01T00:00:00Z,26.4645,-82.1044,1.74,28.13,1111122 
SCCF RECON,ioos:station:SCCF:56:1,2017-07-01T01:00:00Z,26.4645,-82.1044,1.711,28.27,1111122 
SCCF RECON,ioos:station:SCCF:56:1,2017-07-01T02:00:00Z,26.4645,-82.1044,1.655,28.19,1111122 
SCCF RECON,ioos:station:SCCF:56:1,2017-07-01T03:00:00Z,26.4645,-82.1044,1.574,28.32,1111122 
SCCF RECON,ioos:station:SCCF:56:1,2017-07-01T04:00:00Z,26.4645,-82.1044,1.493,28.48,1111122 
SCCF RECON,ioos:station:SCCF:56:1,2017-07-01T05:00:00Z,26.4645,-82.1044,1.42,28.7,1111122 
SCCF RECON,ioos:station:SCCF:56:1,2017-07-01T06:00:00Z,26.4645,-82.1044,1.38,28.83,1111122 
SCCF RECON,ioos:station:SCCF:56:1,2017-07-01T07:00:00Z,26.4645,-82.1044,1.416,28.81,1111122 
SCCF RECON,ioos:station:SCCF:56:1,2017-07-01T08:00:00Z,26.4645,-82.1044,1.52,28.04,1111122 
SCCF RECON,ioos:station:SCCF:56:1,2017-07-01T09:00:00Z,26.4645,-82.1044,1.659,27.89,1111122 
SCCF RECON,ioos:station:SCCF:56:1,2017-07-01T10:00:00Z,26.4645,-82.1044,1.76,27.73,1111122 
SCCF RECON,ioos:station:SCCF:56:1,2017-07-01T11:00:00Z,26.4645,-82.1044,1.838,27.66,1111122 
SCCF RECON,ioos:station:SCCF:56:1,2017-07-01T12:00:00Z,26.4645,-82.1044,1.852,27.66,1111122 
SCCF RECON,ioos:station:SCCF:56:1,2017-07-01T13:00:00Z,26.4645,-82.1044,1.856,27.83,1111122 
SCCF RECON,ioos:station:SCCF:56:1,2017-07-01T14:00:00Z,26.4645,-82.1044,1.789,27.91,1111122 
SCCF RECON,ioos:station:SCCF:56:1,2017-07-01T15:00:00Z,26.4645,-82.1044,1.71,27.86,1111122 
SCCF RECON,ioos:station:SCCF:56:1,2017-07-01T16:00:00Z,26.4645,-82.1044,1.65,28.07,1111122 
SCCF RECON,ioos:station:SCCF:56:1,2017-07-01T17:00:00Z,26.4645,-82.1044,1.563,28.3,1111122 
SCCF RECON,ioos:station:SCCF:56:1,2017-07-01T18:00:00Z,26.4645,-82.1044,1.471,28.47,1111122 
SCCF RECON,ioos:station:SCCF:56:1,2017-07-01T19:00:00Z,26.4645,-82.1044,1.42,28.64,1111122 
SCCF RECON,ioos:station:SCCF:56:1,2017-07-01T20:00:00Z,26.4645,-82.1044,1.421,28.77,1111122 
SCCF RECON,ioos:station:SCCF:56:1,2017-07-01T21:00:00Z,26.4645,-82.1044,1.515,28.47,1111122 
SCCF RECON,ioos:station:SCCF:56:1,2017-07-01T22:00:00Z,26.4645,-82.1044,1.61,28.13,1111122 
SCCF RECON,ioos:station:SCCF:56:1,2017-07-01T23:00:00Z,26.4645,-82.1044,1.66,28.0,1111122 
SCCF RECON,ioos:station:SCCF:56:1,2017-07-02T00:00:00Z,26.4645,-82.1044,1.714,27.84,1111122 
SCCF RECON,ioos:station:SCCF:56:1,2017-07-02T01:00:00Z,26.4645,-82.1044,1.68,28.08,1111122 
SCCF RECON,ioos:station:SCCF:56:1,2017-07-02T02:00:00Z,26.4645,-82.1044,1.63,28.0,1111122 
SCCF RECON,ioos:station:SCCF:56:1,2017-07-02T03:00:00Z,26.4645,-82.1044,1.59,28.08,1111122 
SCCF RECON,ioos:station:SCCF:56:1,2017-07-02T04:00:00Z,26.4645,-82.1044,1.573,28.23,1111122 
SCCF RECON,ioos:station:SCCF:56:1,2017-07-02T05:00:00Z,26.4645,-82.1044,1.521,28.39,1111122 
SCCF RECON,ioos:station:SCCF:56:1,2017-07-02T06:00:00Z,26.4645,-82.1044,1.46,28.62,1111122 
SCCF RECON,ioos:station:SCCF:56:1,2017-07-02T07:00:00Z,26.4645,-82.1044,1.44,28.74,1111122 
SCCF RECON,ioos:station:SCCF:56:1,2017-07-02T08:00:00Z,26.4645,-82.1044,1.5,28.55,1111122 
SCCF RECON,ioos:station:SCCF:56:1,2017-07-02T09:00:00Z,26.4645,-82.1044,1.59,28.18,1111122 
SCCF RECON,ioos:station:SCCF:56:1,2017-07-02T10:00:00Z,26.4645,-82.1044,1.71,28.03,1111122 
SCCF RECON,ioos:station:SCCF:56:1,2017-07-02T11:00:00Z,26.4645,-82.1044,1.795,27.91,1111122 
SCCF RECON,ioos:station:SCCF:56:1,2017-07-02T12:00:00Z,26.4645,-82.1044,1.84,27.91,1111122 
SCCF RECON,ioos:station:SCCF:56:1,2017-07-02T13:00:00Z,26.4645,-82.1044,1.86,28.15,1111122 
SCCF RECON,ioos:station:SCCF:56:1,2017-07-02T14:00:00Z,26.4645,-82.1044,1.84,28.19,1111122 
SCCF RECON,ioos:station:SCCF:56:1,2017-07-02T15:00:00Z,26.4645,-82.1044,1.76,28.09,1111122 
SCCF RECON,ioos:station:SCCF:56:1,2017-07-02T16:00:00Z,26.4645,-82.1044,1.689,28.15,1111122 
SCCF RECON,ioos:station:SCCF:56:1,2017-07-02T17:00:00Z,26.4645,-82.1044,1.585,28.35,1111122 
SCCF RECON,ioos:station:SCCF:56:1,2017-07-02T18:00:00Z,26.4645,-82.1044,1.49,28.56,1111122 
SCCF RECON,ioos:station:SCCF:56:1,2017-07-02T19:00:00Z,26.4645,-82.1044,1.4,28.81,1111122 
SCCF RECON,ioos:station:SCCF:56:1,2017-07-02T20:00:00Z,26.4645,-82.1044,1.32,29.0,1111122 
SCCF RECON,ioos:station:SCCF:56:1,2017-07-02T21:00:00Z,26.4645,-82.1044,1.33,29.1,1111122 
SCCF RECON,ioos:station:SCCF:56:1,2017-07-02T22:00:00Z,26.4645,-82.1044,1.43,27.82,1111122 
SCCF RECON,ioos:station:SCCF:56:1,2017-07-02T23:00:00Z,26.4645,-82.1044,1.535,28.12,1111122 
SCCF RECON,ioos:station:SCCF:56:1,2017-07-03T00:00:00Z,26.4645,-82.1044,1.606,27.89,1111122 
SCCF RECON,ioos:station:SCCF:56:1,2017-07-03T01:00:00Z,26.4645,-82.1044,1.67,27.26,1111122 
SCCF RECON,ioos:station:SCCF:56:1,2017-07-03T02:00:00Z,26.4645,-82.1044,1.68,27.36,1111122 
SCCF RECON,ioos:station:SCCF:56:1,2017-07-03T03:00:00Z,26.4645,-82.1044,1.67,27.38,1111122 
SCCF RECON,ioos:station:SCCF:56:1,2017-07-03T04:00:00Z,26.4645,-82.1044,1.641,27.41,1111122 
SCCF RECON,ioos:station:SCCF:56:1,2017-07-03T05:00:00Z,26.4645,-82.1044,1.6,27.42,1111122 
SCCF RECON,ioos:station:SCCF:56:1,2017-07-03T06:00:00Z,26.4645,-82.1044,1.535,27.72,1111122 
SCCF RECON,ioos:station:SCCF:56:1,2017-07-03T07:00:00Z,26.4645,-82.1044,1.478,28.07,1111122 
SCCF RECON,ioos:station:SCCF:56:1,2017-07-03T08:00:00Z,26.4645,-82.1044,1.46,28.15,1111122 
SCCF RECON,ioos:station:SCCF:56:1,2017-07-03T09:00:00Z,26.4645,-82.1044,1.513,28.0,1111122 
SCCF RECON,ioos:station:SCCF:56:1,2017-07-03T10:00:00Z,26.4645,-82.1044,1.619,27.38,1111122 
SCCF RECON,ioos:station:SCCF:56:1,2017-07-03T11:00:00Z,26.4645,-82.1044,1.72,27.4,1111122 
SCCF RECON,ioos:station:SCCF:56:1,2017-07-03T12:00:00Z,26.4645,-82.1044,1.81,27.42,1111122 
SCCF RECON,ioos:station:SCCF:56:1,2017-07-03T13:00:00Z,26.4645,-82.1044,1.86,27.21,1111122 
SCCF RECON,ioos:station:SCCF:56:1,2017-07-03T14:00:00Z,26.4645,-82.1044,1.9,27.19,1111122 
SCCF RECON,ioos:station:SCCF:56:1,2017-07-03T15:00:00Z,26.4645,-82.1044,1.87,27.33,1111122 
SCCF RECON,ioos:station:SCCF:56:1,2017-07-03T16:00:00Z,26.4645,-82.1044,1.79,27.44,1111122 
SCCF RECON,ioos:station:SCCF:56:1,2017-07-03T17:00:00Z,26.4645,-82.1044,1.66,27.57,1111122 
SCCF RECON,ioos:station:SCCF:56:1,2017-07-03T18:00:00Z,26.4645,-82.1044,1.53,27.94,1111122 
SCCF RECON,ioos:station:SCCF:56:1,2017-07-03T19:00:00Z,26.4645,-82.1044,1.42,28.24,1111122 
SCCF RECON,ioos:station:SCCF:56:1,2017-07-03T20:00:00Z,26.4645,-82.1044,1.34,28.51,1111122 
SCCF RECON,ioos:station:SCCF:56:1,2017-07-03T21:00:00Z,26.4645,-82.1044,1.28,28.76,1111122 
SCCF RECON,ioos:station:SCCF:56:1,2017-07-03T22:00:00Z,26.4645,-82.1044,1.28,28.79,1111122 
SCCF RECON,ioos:station:SCCF:56:1,2017-07-03T23:00:00Z,26.4645,-82.1044,1.37,28.01,1111122 
SCCF RECON,ioos:station:SCCF:56:1,2017-07-04T00:00:00Z,26.4645,-82.1044,1.49,27.17,1111122 
SCCF RECON,ioos:station:SCCF:56:1,2017-07-04T01:00:00Z,26.4645,-82.1044,1.6,27.34,1111122 
SCCF RECON,ioos:station:SCCF:56:1,2017-07-04T02:00:00Z,26.4645,-82.1044,1.65,27.35,1111122 
SCCF RECON,ioos:station:SCCF:56:1,2017-07-04T03:00:00Z,26.4645,-82.1044,1.68,27.41,1111122 
SCCF RECON,ioos:station:SCCF:56:1,2017-07-04T04:00:00Z,26.4645,-82.1044,1.67,27.45,1111122 
SCCF RECON,ioos:station:SCCF:56:1,2017-07-04T05:00:00Z,26.4645,-82.1044,1.65,27.41,1111122 
SCCF RECON,ioos:station:SCCF:56:1,2017-07-04T06:00:00Z,26.4645,-82.1044,1.65,27.57,1111122 
SCCF RECON,ioos:station:SCCF:56:1,2017-07-04T07:00:00Z,26.4645,-82.1044,1.58,27.47,1111122 
SCCF RECON,ioos:station:SCCF:56:1,2017-07-04T08:00:00Z,26.4645,-82.1044,1.51,27.46,1111122 
SCCF RECON,ioos:station:SCCF:56:1,2017-07-04T09:00:00Z,26.4645,-82.1044,1.52,27.58,1111122 
SCCF RECON,ioos:station:SCCF:56:1,2017-07-04T10:00:00Z,26.4645,-82.1044,1.599,27.04,1111122 
SCCF RECON,ioos:station:SCCF:56:1,2017-07-04T11:00:00Z,26.4645,-82.1044,1.728,26.62,1111122 
SCCF RECON,ioos:station:SCCF:56:1,2017-07-04T12:00:00Z,26.4645,-82.1044,1.8,26.62,1111122 
SCCF RECON,ioos:station:SCCF:56:1,2017-07-04T13:00:00Z,26.4645,-82.1044,1.863,26.73,1111122 
SCCF RECON,ioos:station:SCCF:56:1,2017-07-04T14:00:00Z,26.4645,-82.1044,1.9,26.79,1111122 
SCCF RECON,ioos:station:SCCF:56:1,2017-07-04T15:00:00Z,26.4645,-82.1044,1.912,27.08,1111122 
SCCF RECON,ioos:station:SCCF:56:1,2017-07-04T16:00:00Z,26.4645,-82.1044,1.889,27.09,1111122 
SCCF RECON,ioos:station:SCCF:56:1,2017-07-04T17:00:00Z,26.4645,-82.1044,1.77,26.91,1111122 
SCCF RECON,ioos:station:SCCF:56:1,2017-07-04T18:00:00Z,26.4645,-82.1044,1.612,27.1,1111122 
SCCF RECON,ioos:station:SCCF:56:1,2017-07-04T19:00:00Z,26.4645,-82.1044,1.5,27.55,1111122 
SCCF RECON,ioos:station:SCCF:56:1,2017-07-04T20:00:00Z,26.4645,-82.1044,1.4,27.87,1111122 
SCCF RECON,ioos:station:SCCF:56:1,2017-07-04T21:00:00Z,26.4645,-82.1044,1.314,28.08,1111122 
SCCF RECON,ioos:station:SCCF:56:1,2017-07-04T22:00:00Z,26.4645,-82.1044,1.22,28.51,1111122 
SCCF RECON,ioos:station:SCCF:56:1,2017-07-04T23:00:00Z,26.4645,-82.1044,1.223,28.59,1111122 
SCCF RECON,ioos:station:SCCF:56:1,2017-07-05T00:00:00Z,26.4645,-82.1044,1.35,27.51,1111122 
SCCF RECON,ioos:station:SCCF:56:1,2017-07-05T01:00:00Z,26.4645,-82.1044,1.473,27.07,1111122 
SCCF RECON,ioos:station:SCCF:56:1,2017-07-05T02:00:00Z,26.4645,-82.1044,1.59,26.86,1111122 
SCCF RECON,ioos:station:SCCF:56:1,2017-07-05T03:00:00Z,26.4645,-82.1044,1.66,26.8,1111122 
SCCF RECON,ioos:station:SCCF:56:1,2017-07-05T04:00:00Z,26.4645,-82.1044,1.728,26.83,1111122 
SCCF RECON,ioos:station:SCCF:56:1,2017-07-05T05:00:00Z,26.4645,-82.1044,1.72,26.78,1111122 
SCCF RECON,ioos:station:SCCF:56:1,2017-07-05T06:00:00Z,26.4645,-82.1044,1.66,26.94,1111122 
SCCF RECON,ioos:station:SCCF:56:1,2017-07-05T07:00:00Z,26.4645,-82.1044,1.62,26.98,1111122 
SCCF RECON,ioos:station:SCCF:56:1,2017-07-05T08:00:00Z,26.4645,-82.1044,1.56,27.12,1111122 
SCCF RECON,ioos:station:SCCF:56:1,2017-07-05T09:00:00Z,26.4645,-82.1044,1.56,27.28,1111122 
SCCF RECON,ioos:station:SCCF:56:1,2017-07-05T10:00:00Z,26.4645,-82.1044,1.59,27.24,1111122 
SCCF RECON,ioos:station:SCCF:56:1,2017-07-05T11:00:00Z,26.4645,-82.1044,1.676,26.81,1111122 
SCCF RECON,ioos:station:SCCF:56:1,2017-07-05T12:00:00Z,26.4645,-82.1044,1.76,26.34,1111122 
SCCF RECON,ioos:station:SCCF:56:1,2017-07-05T13:00:00Z,26.4645,-82.1044,1.839,26.23,1111122 
SCCF RECON,ioos:station:SCCF:56:1,2017-07-05T14:00:00Z,26.4645,-82.1044,1.89,26.23,1111122 
SCCF RECON,ioos:station:SCCF:56:1,2017-07-05T15:00:00Z,26.4645,-82.1044,1.941,26.45,1111122 
SCCF RECON,ioos:station:SCCF:56:1,2017-07-05T16:00:00Z,26.4645,-82.1044,1.94,26.65,1111122 
SCCF RECON,ioos:station:SCCF:56:1,2017-07-05T17:00:00Z,26.4645,-82.1044,1.83,26.51,1111122 
SCCF RECON,ioos:station:SCCF:56:1,2017-07-05T18:00:00Z,26.4645,-82.1044,1.691,26.69,1111122 
SCCF RECON,ioos:station:SCCF:56:1,2017-07-05T19:00:00Z,26.4645,-82.1044,1.58,27.02,1111122 
SCCF RECON,ioos:station:SCCF:56:1,2017-07-05T20:00:00Z,26.4645,-82.1044,1.48,27.45,1111122 
SCCF RECON,ioos:station:SCCF:56:1,2017-07-05T21:00:00Z,26.4645,-82.1044,1.344,27.79,1111122 
SCCF RECON,ioos:station:SCCF:56:1,2017-07-05T22:00:00Z,26.4645,-82.1044,1.277,27.98,1111122 
SCCF RECON,ioos:station:SCCF:56:1,2017-07-05T23:00:00Z,26.4645,-82.1044,1.19,28.2,1111122 
SCCF RECON,ioos:station:SCCF:56:1,2017-07-06T00:00:00Z,26.4645,-82.1044,1.242,28.25,1111122 
SCCF RECON,ioos:station:SCCF:56:1,2017-07-06T01:00:00Z,26.4645,-82.1044,1.39,26.94,1111122 
SCCF RECON,ioos:station:SCCF:56:1,2017-07-06T02:00:00Z,26.4645,-82.1044,1.52,26.68,1111122 
SCCF RECON,ioos:station:SCCF:56:1,2017-07-06T03:00:00Z,26.4645,-82.1044,1.64,26.51,1111122 
SCCF RECON,ioos:station:SCCF:56:1,2017-07-06T04:00:00Z,26.4645,-82.1044,1.71,26.45,1111122 
SCCF RECON,ioos:station:SCCF:56:1,2017-07-06T05:00:00Z,26.4645,-82.1044,1.76,26.46,1111122 
SCCF RECON,ioos:station:SCCF:56:1,2017-07-06T06:00:00Z,26.4645,-82.1044,1.73,26.51,1111122 
SCCF RECON,ioos:station:SCCF:56:1,2017-07-06T07:00:00Z,26.4645,-82.1044,1.68,26.58,1111122 
SCCF RECON,ioos:station:SCCF:56:1,2017-07-06T08:00:00Z,26.4645,-82.1044,1.61,26.68,1111122 
SCCF RECON,ioos:station:SCCF:56:1,2017-07-06T09:00:00Z,26.4645,-82.1044,1.54,26.98,1111122 
SCCF RECON,ioos:station:SCCF:56:1,2017-07-06T10:00:00Z,26.4645,-82.1044,1.492,27.09,1111122 
SCCF RECON,ioos:station:SCCF:56:1,2017-07-06T11:00:00Z,26.4645,-82.1044,1.51,27.13,1111122 
SCCF RECON,ioos:station:SCCF:56:1,2017-07-06T12:00:00Z,26.4645,-82.1044,1.65,26.75,1111122 
SCCF RECON,ioos:station:SCCF:56:1,2017-07-06T13:00:00Z,26.4645,-82.1044,1.8,26.37,1111122 
SCCF RECON,ioos:station:SCCF:56:1,2017-07-06T14:00:00Z,26.4645,-82.1044,1.904,26.18,1111122 
SCCF RECON,ioos:station:SCCF:56:1,2017-07-06T15:00:00Z,26.4645,-82.1044,1.96,26.12,1111122 
SCCF RECON,ioos:station:SCCF:56:1,2017-07-06T16:00:00Z,26.4645,-82.1044,1.951,26.22,1111122 
SCCF RECON,ioos:station:SCCF:56:1,2017-07-06T17:00:00Z,26.4645,-82.1044,1.89,26.26,1111122 
SCCF RECON,ioos:station:SCCF:56:1,2017-07-06T18:00:00Z,26.4645,-82.1044,1.77,26.37,1111122 
SCCF RECON,ioos:station:SCCF:56:1,2017-07-06T19:00:00Z,26.4645,-82.1044,1.635,26.61,1111122 
SCCF RECON,ioos:station:SCCF:56:1,2017-07-06T20:00:00Z,26.4645,-82.1044,1.553,26.72,1111122 
SCCF RECON,ioos:station:SCCF:56:1,2017-07-06T21:00:00Z,26.4645,-82.1044,1.376,27.12,1111122 
SCCF RECON,ioos:station:SCCF:56:1,2017-07-06T22:00:00Z,26.4645,-82.1044,1.27,27.38,1111122 
SCCF RECON,ioos:station:SCCF:56:1,2017-07-06T23:00:00Z,26.4645,-82.1044,1.166,27.64,1111122 
SCCF RECON,ioos:station:SCCF:56:1,2017-07-07T00:00:00Z,26.4645,-82.1044,1.13,27.91,1111122 
SCCF RECON,ioos:station:SCCF:56:1,2017-07-07T01:00:00Z,26.4645,-82.1044,1.234,27.5,1111122 
SCCF RECON,ioos:station:SCCF:56:1,2017-07-07T02:00:00Z,26.4645,-82.1044,1.379,26.3,1111122 
SCCF RECON,ioos:station:SCCF:56:1,2017-07-07T03:00:00Z,26.4645,-82.1044,1.511,26.23,1111122 
SCCF RECON,ioos:station:SCCF:56:1,2017-07-07T04:00:00Z,26.4645,-82.1044,1.63,26.28,1111122 
SCCF RECON,ioos:station:SCCF:56:1,2017-07-07T05:00:00Z,26.4645,-82.1044,1.7,26.27,1111122 
SCCF RECON,ioos:station:SCCF:56:1,2017-07-07T06:00:00Z,26.4645,-82.1044,1.69,26.26,1111122 
SCCF RECON,ioos:station:SCCF:56:1,2017-07-07T07:00:00Z,26.4645,-82.1044,1.652,26.42,1111122 
SCCF RECON,ioos:station:SCCF:56:1,2017-07-07T08:00:00Z,26.4645,-82.1044,1.63,26.31,1111122 
SCCF RECON,ioos:station:SCCF:56:1,2017-07-07T09:00:00Z,26.4645,-82.1044,1.601,26.32,1111122 
SCCF RECON,ioos:station:SCCF:56:1,2017-07-07T10:00:00Z,26.4645,-82.1044,1.58,26.42,1111122 
SCCF RECON,ioos:station:SCCF:56:1,2017-07-07T11:00:00Z,26.4645,-82.1044,1.59,26.44,1111122 
SCCF RECON,ioos:station:SCCF:56:1,2017-07-07T12:00:00Z,26.4645,-82.1044,1.66,26.36,1111122 
SCCF RECON,ioos:station:SCCF:56:1,2017-07-07T13:00:00Z,26.4645,-82.1044,1.75,26.18,1111122 
SCCF RECON,ioos:station:SCCF:56:1,2017-07-07T14:00:00Z,26.4645,-82.1044,1.853,26.29,1111122 
SCCF RECON,ioos:station:SCCF:56:1,2017-07-07T15:00:00Z,26.4645,-82.1044,1.94,26.1,1111122 
SCCF RECON,ioos:station:SCCF:56:1,2017-07-07T16:00:00Z,26.4645,-82.1044,1.99,26.1,1111122 
SCCF RECON,ioos:station:SCCF:56:1,2017-07-07T17:00:00Z,26.4645,-82.1044,1.98,26.09,1111122 
SCCF RECON,ioos:station:SCCF:56:1,2017-07-07T18:00:00Z,26.4645,-82.1044,1.875,26.13,1111122 
SCCF RECON,ioos:station:SCCF:56:1,2017-07-07T19:00:00Z,26.4645,-82.1044,1.75,26.25,1111122 
SCCF RECON,ioos:station:SCCF:56:1,2017-07-07T20:00:00Z,26.4645,-82.1044,1.6,26.45,1111122 
SCCF RECON,ioos:station:SCCF:56:1,2017-07-07T21:00:00Z,26.4645,-82.1044,1.46,26.73,1111122 
SCCF RECON,ioos:station:SCCF:56:1,2017-07-07T22:00:00Z,26.4645,-82.1044,1.33,26.96,1111122 
SCCF RECON,ioos:station:SCCF:56:1,2017-07-07T23:00:00Z,26.4645,-82.1044,1.21,27.17,1111122 
SCCF RECON,ioos:station:SCCF:56:1,2017-07-08T00:00:00Z,26.4645,-82.1044,1.15,27.31,1111122 
SCCF RECON,ioos:station:SCCF:56:1,2017-07-08T01:00:00Z,26.4645,-82.1044,1.18,27.51,1111122 
SCCF RECON,ioos:station:SCCF:56:1,2017-07-08T02:00:00Z,26.4645,-82.1044,1.33,27.02,1111122 
SCCF RECON,ioos:station:SCCF:56:1,2017-07-08T03:00:00Z,26.4645,-82.1044,1.496,26.59,1111122 
SCCF RECON,ioos:station:SCCF:56:1,2017-07-08T04:00:00Z,26.4645,-82.1044,1.62,26.42,1111122 
SCCF RECON,ioos:station:SCCF:56:1,2017-07-08T05:00:00Z,26.4645,-82.1044,1.711,26.39,1111122 
SCCF RECON,ioos:station:SCCF:56:1,2017-07-08T06:00:00Z,26.4645,-82.1044,1.77,26.35,1111122 
SCCF RECON,ioos:station:SCCF:56:1,2017-07-08T07:00:00Z,26.4645,-82.1044,1.76,26.22,1111122 
SCCF RECON,ioos:station:SCCF:56:1,2017-07-08T08:00:00Z,26.4645,-82.1044,1.67,26.33,1111122 
SCCF RECON,ioos:station:SCCF:56:1,2017-07-08T09:00:00Z,26.4645,-82.1044,1.6,26.44,1111122 
SCCF RECON,ioos:station:SCCF:56:1,2017-07-08T10:00:00Z,26.4645,-82.1044,1.56,26.54,1111122 
SCCF RECON,ioos:station:SCCF:56:1,2017-07-08T11:00:00Z,26.4645,-82.1044,1.56,26.57,1111122 
SCCF RECON,ioos:station:SCCF:56:1,2017-07-08T12:00:00Z,26.4645,-82.1044,1.6,26.52,1111122 
SCCF RECON,ioos:station:SCCF:56:1,2017-07-08T13:00:00Z,26.4645,-82.1044,1.7,26.37,1111122 
SCCF RECON,ioos:station:SCCF:56:1,2017-07-08T14:00:00Z,26.4645,-82.1044,1.82,26.36,1111122 
SCCF RECON,ioos:station:SCCF:56:1,2017-07-08T15:00:00Z,26.4645,-82.1044,1.93,26.33,1111122 
SCCF RECON,ioos:station:SCCF:56:1,2017-07-08T16:00:00Z,26.4645,-82.1044,1.98,26.34,1111122 
SCCF RECON,ioos:station:SCCF:56:1,2017-07-08T17:00:00Z,26.4645,-82.1044,1.97,26.4,1111122 
SCCF RECON,ioos:station:SCCF:56:1,2017-07-08T18:00:00Z,26.4645,-82.1044,1.919,26.4,1111122 
SCCF RECON,ioos:station:SCCF:56:1,2017-07-08T19:00:00Z,26.4645,-82.1044,1.81,26.42,1111122 
SCCF RECON,ioos:station:SCCF:56:1,2017-07-08T20:00:00Z,26.4645,-82.1044,1.67,26.52,1111122 
SCCF RECON,ioos:station:SCCF:56:1,2017-07-08T21:00:00Z,26.4645,-82.1044,1.535,26.74,1111122 
SCCF RECON,ioos:station:SCCF:56:1,2017-07-08T22:00:00Z,26.4645,-82.1044,1.4,26.93,1111122 
SCCF RECON,ioos:station:SCCF:56:1,2017-07-08T23:00:00Z,26.4645,-82.1044,1.271,27.12,1111122 
SCCF RECON,ioos:station:SCCF:56:1,2017-07-09T00:00:00Z,26.4645,-82.1044,1.17,27.34,1111122 
SCCF RECON,ioos:station:SCCF:56:1,2017-07-09T01:00:00Z,26.4645,-82.1044,1.11,27.49,1111122 
SCCF RECON,ioos:station:SCCF:56:1,2017-07-09T02:00:00Z,26.4645,-82.1044,1.22,27.48,1111122 
SCCF RECON,ioos:station:SCCF:56:1,2017-07-09T03:00:00Z,26.4645,-82.1044,1.4,26.99,1111122 
SCCF RECON,ioos:station:SCCF:56:1,2017-07-09T04:00:00Z,26.4645,-82.1044,1.52,26.8,1111122 
SCCF RECON,ioos:station:SCCF:56:1,2017-07-09T05:00:00Z,26.4645,-82.1044,1.62,26.74,1111122 
SCCF RECON,ioos:station:SCCF:56:1,2017-07-09T06:00:00Z,26.4645,-82.1044,1.71,26.75,1111122 
SCCF RECON,ioos:station:SCCF:56:1,2017-07-09T07:00:00Z,26.4645,-82.1044,1.72,26.69,1111122 
SCCF RECON,ioos:station:SCCF:56:1,2017-07-09T08:00:00Z,26.4645,-82.1044,1.7,26.67,1111122 
SCCF RECON,ioos:station:SCCF:56:1,2017-07-09T09:00:00Z,26.4645,-82.1044,1.66,26.74,1111122 
SCCF RECON,ioos:station:SCCF:56:1,2017-07-09T10:00:00Z,26.4645,-82.1044,1.6,26.76,1111122 
SCCF RECON,ioos:station:SCCF:56:1,2017-07-09T11:00:00Z,26.4645,-82.1044,1.56,26.81,1111122 
SCCF RECON,ioos:station:SCCF:56:1,2017-07-09T12:00:00Z,26.4645,-82.1044,1.559,26.91,1111122 
SCCF RECON,ioos:station:SCCF:56:1,2017-07-09T13:00:00Z,26.4645,-82.1044,1.6,26.84,1111122 
SCCF RECON,ioos:station:SCCF:56:1,2017-07-09T14:00:00Z,26.4645,-82.1044,1.72,26.71,1111122 
SCCF RECON,ioos:station:SCCF:56:1,2017-07-09T15:00:00Z,26.4645,-82.1044,1.851,26.75,1111122 
SCCF RECON,ioos:station:SCCF:56:1,2017-07-09T16:00:00Z,26.4645,-82.1044,1.95,26.8,1111122 
SCCF RECON,ioos:station:SCCF:56:1,2017-07-09T17:00:00Z,26.4645,-82.1044,1.992,26.81,1111122 
SCCF RECON,ioos:station:SCCF:56:1,2017-07-09T18:00:00Z,26.4645,-82.1044,1.979,26.79,1111122 
SCCF RECON,ioos:station:SCCF:56:1,2017-07-09T19:00:00Z,26.4645,-82.1044,1.877,26.8,1111122 
SCCF RECON,ioos:station:SCCF:56:1,2017-07-09T20:00:00Z,26.4645,-82.1044,1.754,26.84,1111122 
SCCF RECON,ioos:station:SCCF:56:1,2017-07-09T21:00:00Z,26.4645,-82.1044,1.6,26.93,1111122 
SCCF RECON,ioos:station:SCCF:56:1,2017-07-09T22:00:00Z,26.4645,-82.1044,1.45,27.08,1111122 
SCCF RECON,ioos:station:SCCF:56:1,2017-07-09T23:00:00Z,26.4645,-82.1044,1.32,27.24,1111122 
SCCF RECON,ioos:station:SCCF:56:1,2017-07-10T00:00:00Z,26.4645,-82.1044,1.21,27.41,1111122 
SCCF RECON,ioos:station:SCCF:56:1,2017-07-10T01:00:00Z,26.4645,-82.1044,1.13,27.53,1111122 
SCCF RECON,ioos:station:SCCF:56:1,2017-07-10T02:00:00Z,26.4645,-82.1044,1.13,27.71,1111122 
SCCF RECON,ioos:station:SCCF:56:1,2017-07-10T03:00:00Z,26.4645,-82.1044,1.301,27.31,1111122 
SCCF RECON,ioos:station:SCCF:56:1,2017-07-10T04:00:00Z,26.4645,-82.1044,1.46,27.13,1111122 
SCCF RECON,ioos:station:SCCF:56:1,2017-07-10T05:00:00Z,26.4645,-82.1044,1.58,27.02,1111122 
SCCF RECON,ioos:station:SCCF:56:1,2017-07-10T06:00:00Z,26.4645,-82.1044,1.67,26.99,1111122 
SCCF RECON,ioos:station:SCCF:56:1,2017-07-10T07:00:00Z,26.4645,-82.1044,1.74,26.97,1111122 
SCCF RECON,ioos:station:SCCF:56:1,2017-07-10T08:00:00Z,26.4645,-82.1044,1.74,27.01,1111122 
SCCF RECON,ioos:station:SCCF:56:1,2017-07-10T09:00:00Z,26.4645,-82.1044,1.7,27.05,1111122 
SCCF RECON,ioos:station:SCCF:56:1,2017-07-10T10:00:00Z,26.4645,-82.1044,1.63,27.03,1111122 
SCCF RECON,ioos:station:SCCF:56:1,2017-07-10T11:00:00Z,26.4645,-82.1044,1.598,27.06,1111122 
SCCF RECON,ioos:station:SCCF:56:1,2017-07-10T12:00:00Z,26.4645,-82.1044,1.55,27.19,1111122 
SCCF RECON,ioos:station:SCCF:56:1,2017-07-10T13:00:00Z,26.4645,-82.1044,1.521,27.24,1111122 
SCCF RECON,ioos:station:SCCF:56:1,2017-07-10T14:00:00Z,26.4645,-82.1044,1.61,27.15,1111122 
SCCF RECON,ioos:station:SCCF:56:1,2017-07-10T15:00:00Z,26.4645,-82.1044,1.75,27.03,1111122 
SCCF RECON,ioos:station:SCCF:56:1,2017-07-10T16:00:00Z,26.4645,-82.1044,1.878,26.95,1111122 
SCCF RECON,ioos:station:SCCF:56:1,2017-07-10T17:00:00Z,26.4645,-82.1044,1.99,27.01,1111122 
SCCF RECON,ioos:station:SCCF:56:1,2017-07-10T18:00:00Z,26.4645,-82.1044,1.98,27.0,1111122 
SCCF RECON,ioos:station:SCCF:56:1,2017-07-10T19:00:00Z,26.4645,-82.1044,2.01,26.98,1111122 
SCCF RECON,ioos:station:SCCF:56:1,2017-07-10T20:00:00Z,26.4645,-82.1044,1.86,27.03,1111122 
SCCF RECON,ioos:station:SCCF:56:1,2017-07-10T21:00:00Z,26.4645,-82.1044,1.72,26.91,1111122 
SCCF RECON,ioos:station:SCCF:56:1,2017-07-10T22:00:00Z,26.4645,-82.1044,1.6,26.7,1111122 
SCCF RECON,ioos:station:SCCF:56:1,2017-07-10T23:00:00Z,26.4645,-82.1044,1.43,26.73,1111122 
SCCF RECON,ioos:station:SCCF:56:1,2017-07-11T00:00:00Z,26.4645,-82.1044,1.31,26.89,1111122 
SCCF RECON,ioos:station:SCCF:56:1,2017-07-11T01:00:00Z,26.4645,-82.1044,1.21,27.07,1111122 
SCCF RECON,ioos:station:SCCF:56:1,2017-07-11T02:00:00Z,26.4645,-82.1044,1.161,27.2,1111122 
SCCF RECON,ioos:station:SCCF:56:1,2017-07-11T03:00:00Z,26.4645,-82.1044,1.219,27.24,1111122 
SCCF RECON,ioos:station:SCCF:56:1,2017-07-11T04:00:00Z,26.4645,-82.1044,1.36,27.15,1111122 
SCCF RECON,ioos:station:SCCF:56:1,2017-07-11T05:00:00Z,26.4645,-82.1044,1.53,26.99,1111122 
SCCF RECON,ioos:station:SCCF:56:1,2017-07-11T06:00:00Z,26.4645,-82.1044,1.645,26.97,1111122 
SCCF RECON,ioos:station:SCCF:56:1,2017-07-11T07:00:00Z,26.4645,-82.1044,1.71,27.18,1111122 
SCCF RECON,ioos:station:SCCF:56:1,2017-07-11T08:00:00Z,26.4645,-82.1044,1.721,27.21,1111122 
SCCF RECON,ioos:station:SCCF:56:1,2017-07-11T09:00:00Z,26.4645,-82.1044,1.69,27.21,1111122 
SCCF RECON,ioos:station:SCCF:56:1,2017-07-11T10:00:00Z,26.4645,-82.1044,1.662,27.22,1111122 
SCCF RECON,ioos:station:SCCF:56:1,2017-07-11T11:00:00Z,26.4645,-82.1044,1.58,27.26,1111122 
SCCF RECON,ioos:station:SCCF:56:1,2017-07-11T12:00:00Z,26.4645,-82.1044,1.51,27.27,1111122 
SCCF RECON,ioos:station:SCCF:56:1,2017-07-11T13:00:00Z,26.4645,-82.1044,1.45,27.29,1111122 
SCCF RECON,ioos:station:SCCF:56:1,2017-07-11T14:00:00Z,26.4645,-82.1044,1.55,27.3,1111122 
SCCF RECON,ioos:station:SCCF:56:1,2017-07-11T15:00:00Z,26.4645,-82.1044,1.706,26.95,1111122 
SCCF RECON,ioos:station:SCCF:56:1,2017-07-11T16:00:00Z,26.4645,-82.1044,1.84,26.85,1111122 
SCCF RECON,ioos:station:SCCF:56:1,2017-07-11T17:00:00Z,26.4645,-82.1044,1.93,26.84,1111122 
SCCF RECON,ioos:station:SCCF:56:1,2017-07-11T18:00:00Z,26.4645,-82.1044,1.97,26.88,1111122 